Time,TemperatureF,DewpointF,PressureIn,WindDirection,WindDirectionDegrees,WindSpeedMPH,WindSpeedGustMPH,Humidity,HourlyPrecipIn,Conditions,Clouds,dailyrainin,SoftwareType,DateUTC
2013-07-19 00:00:00,77.2,60.3,28.61,SSW,202,3.8,7.4,56,0.00,,,0.00,VWS V14.01,2013-07-19 05:00:00,
2013-07-19 00:05:00,77.0,60.1,28.61,SSW,202,4.9,7.4,56,0.00,,,0.00,VWS V14.01,2013-07-19 05:05:00,
2013-07-19 00:10:00,76.8,60.5,28.61,SW,225,3.8,5.4,57,0.00,,,0.00,VWS V14.01,2013-07-19 05:10:00,
2013-07-19 00:15:00,76.5,60.6,28.61,SSW,202,3.4,6.9,58,0.00,,,0.00,VWS V14.01,2013-07-19 05:15:00,
2013-07-19 00:20:00,76.5,60.6,28.61,SW,225,3.8,5.8,58,0.00,,,0.00,VWS V14.01,2013-07-19 05:20:00,
2013-07-19 00:25:00,76.3,60.4,28.61,SSW,202,4.3,5.8,58,0.00,,,0.00,VWS V14.01,2013-07-19 05:25:00,
2013-07-19 00:30:00,75.9,60.6,28.61,SSW,202,3.8,5.4,59,0.00,,,0.00,VWS V14.01,2013-07-19 05:30:00,
2013-07-19 00:35:00,75.7,60.4,28.61,SW,225,4.3,6.0,59,0.00,,,0.00,VWS V14.01,2013-07-19 05:35:00,
2013-07-19 00:40:00,75.7,60.9,28.61,SSW,202,4.3,5.6,60,0.00,,,0.00,VWS V14.01,2013-07-19 05:40:00,
2013-07-19 00:45:00,75.7,60.9,28.61,SSW,202,4.9,6.7,60,0.00,,,0.00,VWS V14.01,2013-07-19 05:45:00,
2013-07-19 00:50:00,75.9,61.0,28.61,SSW,202,5.4,7.2,60,0.00,,,0.00,VWS V14.01,2013-07-19 05:50:00,
2013-07-19 00:55:00,75.7,60.4,28.61,SSW,202,4.3,5.6,59,0.00,,,0.00,VWS V14.01,2013-07-19 05:55:00,
2013-07-19 01:00:00,75.9,60.6,28.61,SSW,202,5.8,7.6,59,0.00,,,0.00,VWS V14.01,2013-07-19 06:00:00,
2013-07-19 01:05:00,75.9,60.6,28.61,SSW,202,4.3,6.0,59,0.00,,,0.00,VWS V14.01,2013-07-19 06:05:00,
2013-07-19 01:10:00,75.7,60.4,28.61,SSW,202,3.4,6.0,59,0.00,,,0.00,VWS V14.01,2013-07-19 06:10:00,
2013-07-19 01:15:00,75.6,60.2,28.61,SSW,202,3.6,6.0,59,0.00,,,0.00,VWS V14.01,2013-07-19 06:15:00,
2013-07-19 01:20:00,75.6,60.2,28.61,SSW,202,2.9,6.3,59,0.00,,,0.00,VWS V14.01,2013-07-19 06:20:00,
2013-07-19 01:25:00,75.6,60.2,28.61,SW,225,4.0,5.6,59,0.00,,,0.00,VWS V14.01,2013-07-19 06:25:00,
2013-07-19 01:30:00,75.6,59.8,28.58,WSW,248,3.8,4.9,58,0.00,,,0.00,VWS V14.01,2013-07-19 06:30:00,
2013-07-19 01:35:00,75.6,59.8,28.58,SSW,202,6.0,6.0,58,0.00,,,0.00,VWS V14.01,2013-07-19 06:35:00,
2013-07-19 01:40:00,75.7,59.9,28.58,SW,225,3.8,6.3,58,0.00,,,0.00,VWS V14.01,2013-07-19 06:40:00,
2013-07-19 01:45:00,75.9,59.6,28.58,WSW,248,6.3,6.3,57,0.00,,,0.00,VWS V14.01,2013-07-19 06:45:00,
2013-07-19 01:50:00,76.1,59.3,28.58,SSW,202,5.8,7.6,56,0.00,,,0.00,VWS V14.01,2013-07-19 06:50:00,
2013-07-19 01:55:00,76.3,58.9,28.58,SSW,202,3.6,6.5,55,0.00,,,0.00,VWS V14.01,2013-07-19 06:55:00,
2013-07-19 02:00:00,76.3,58.4,28.58,SSW,202,5.4,7.2,54,0.00,,,0.00,VWS V14.01,2013-07-19 07:00:00,
2013-07-19 02:05:00,76.5,58.6,28.58,WSW,248,5.6,7.4,54,0.00,,,0.00,VWS V14.01,2013-07-19 07:05:00,
2013-07-19 02:10:00,76.6,58.2,28.58,SW,225,6.0,7.8,53,0.00,,,0.00,VWS V14.01,2013-07-19 07:10:00,
2013-07-19 02:15:00,76.8,57.9,28.58,WSW,248,5.4,6.5,52,0.00,,,0.00,VWS V14.01,2013-07-19 07:15:00,
2013-07-19 02:20:00,76.8,57.3,28.58,SSW,202,5.8,8.5,51,0.00,,,0.00,VWS V14.01,2013-07-19 07:20:00,
2013-07-19 02:25:00,77.0,57.0,28.58,SW,225,5.8,7.6,50,0.00,,,0.00,VWS V14.01,2013-07-19 07:25:00,
2013-07-19 02:30:00,77.0,57.0,28.58,SW,225,6.9,6.9,50,0.00,,,0.00,VWS V14.01,2013-07-19 07:30:00,
2013-07-19 02:35:00,77.2,56.6,28.58,SSW,202,7.2,7.2,49,0.00,,,0.00,VWS V14.01,2013-07-19 07:35:00,
2013-07-19 02:40:00,77.2,56.6,28.58,SW,225,4.7,7.6,49,0.00,,,0.00,VWS V14.01,2013-07-19 07:40:00,
2013-07-19 02:45:00,77.4,56.2,28.58,WSW,248,5.4,10.1,48,0.00,,,0.00,VWS V14.01,2013-07-19 07:45:00,
2013-07-19 02:50:00,77.5,56.3,28.58,SSW,202,5.4,7.8,48,0.00,,,0.00,VWS V14.01,2013-07-19 07:50:00,
2013-07-19 02:55:00,77.9,56.1,28.58,WSW,248,7.6,8.7,47,0.00,,,0.00,VWS V14.01,2013-07-19 07:55:00,
2013-07-19 03:00:00,77.9,56.1,28.58,WSW,248,5.8,9.8,47,0.00,,,0.00,VWS V14.01,2013-07-19 08:00:00,
2013-07-19 03:05:00,77.9,56.1,28.58,SW,225,4.9,7.6,47,0.00,,,0.00,VWS V14.01,2013-07-19 08:05:00,
2013-07-19 03:10:00,78.1,55.6,28.58,SW,225,7.4,12.8,46,0.00,,,0.00,VWS V14.01,2013-07-19 08:10:00,
2013-07-19 03:15:00,78.3,55.8,28.55,WSW,248,5.4,11.2,46,0.00,,,0.00,VWS V14.01,2013-07-19 08:15:00,
2013-07-19 03:20:00,78.3,55.2,28.55,SW,225,10.1,15.4,45,0.00,,,0.00,VWS V14.01,2013-07-19 08:20:00,
2013-07-19 03:25:00,78.4,55.4,28.55,SW,225,8.1,11.9,45,0.00,,,0.00,VWS V14.01,2013-07-19 08:25:00,
2013-07-19 03:30:00,78.3,55.2,28.55,WSW,248,7.4,8.5,45,0.00,,,0.00,VWS V14.01,2013-07-19 08:30:00,
2013-07-19 03:35:00,78.4,55.4,28.55,WSW,248,6.0,12.5,45,0.00,,,0.00,VWS V14.01,2013-07-19 08:35:00,
2013-07-19 03:40:00,78.1,55.0,28.55,WSW,248,9.8,11.0,45,0.00,,,0.00,VWS V14.01,2013-07-19 08:40:00,
2013-07-19 03:45:00,78.1,55.0,28.55,WSW,248,8.5,11.9,45,0.00,,,0.00,VWS V14.01,2013-07-19 08:45:00,
2013-07-19 03:50:00,78.1,55.0,28.55,WSW,248,5.4,13.2,45,0.00,,,0.00,VWS V14.01,2013-07-19 08:50:00,
2013-07-19 03:55:00,77.9,54.9,28.55,West,270,8.1,11.9,45,0.00,,,0.00,VWS V14.01,2013-07-19 08:55:00,
2013-07-19 04:00:00,77.9,54.9,28.55,SW,225,8.7,12.5,45,0.00,,,0.00,VWS V14.01,2013-07-19 09:00:00,
2013-07-19 04:05:00,77.9,54.9,28.55,WSW,248,6.0,9.8,45,0.00,,,0.00,VWS V14.01,2013-07-19 09:05:00,
2013-07-19 04:10:00,77.7,54.7,28.55,WSW,248,6.5,11.0,45,0.00,,,0.00,VWS V14.01,2013-07-19 09:10:00,
2013-07-19 04:15:00,77.5,54.5,28.55,SW,225,6.3,10.3,45,0.00,,,0.00,VWS V14.01,2013-07-19 09:15:00,
2013-07-19 04:20:00,77.4,54.4,28.55,WSW,248,5.4,9.8,45,0.00,,,0.00,VWS V14.01,2013-07-19 09:20:00,
2013-07-19 04:25:00,77.4,54.4,28.55,WSW,248,8.5,10.7,45,0.00,,,0.00,VWS V14.01,2013-07-19 09:25:00,
2013-07-19 04:30:00,77.4,54.4,28.55,WSW,248,7.6,11.2,45,0.00,,,0.00,VWS V14.01,2013-07-19 09:30:00,
2013-07-19 04:35:00,77.0,54.1,28.55,WSW,248,10.7,13.2,45,0.00,,,0.00,VWS V14.01,2013-07-19 09:35:00,
2013-07-19 04:40:00,77.2,54.2,28.55,WSW,248,5.8,10.7,45,0.00,,,0.00,VWS V14.01,2013-07-19 09:40:00,
2013-07-19 04:45:00,77.2,54.2,28.55,WSW,248,6.5,10.1,45,0.00,,,0.00,VWS V14.01,2013-07-19 09:45:00,
2013-07-19 04:50:00,77.0,54.1,28.55,SW,225,9.0,10.7,45,0.00,,,0.00,VWS V14.01,2013-07-19 09:50:00,
2013-07-19 04:55:00,77.2,54.2,28.55,SW,225,6.5,13.0,45,0.00,,,0.00,VWS V14.01,2013-07-19 09:55:00,
2013-07-19 05:00:00,77.0,54.1,28.55,SSW,202,6.0,11.0,45,0.00,,,0.00,VWS V14.01,2013-07-19 10:00:00,
2013-07-19 05:05:00,77.2,53.6,28.55,WSW,248,5.4,13.0,44,0.00,,,0.00,VWS V14.01,2013-07-19 10:05:00,
2013-07-19 05:10:00,77.0,53.4,28.55,SW,225,5.8,9.4,44,0.00,,,0.00,VWS V14.01,2013-07-19 10:10:00,
2013-07-19 05:15:00,77.0,53.4,28.55,WSW,248,7.8,8.5,44,0.00,,,0.00,VWS V14.01,2013-07-19 10:15:00,
2013-07-19 05:20:00,77.0,53.4,28.55,SW,225,7.8,8.7,44,0.00,,,0.00,VWS V14.01,2013-07-19 10:20:00,
2013-07-19 05:25:00,77.2,53.6,28.55,WSW,248,6.5,11.0,44,0.00,,,0.00,VWS V14.01,2013-07-19 10:25:00,
2013-07-19 05:30:00,77.4,53.8,28.55,SW,225,7.6,10.5,44,0.00,,,0.00,VWS V14.01,2013-07-19 10:30:00,
2013-07-19 05:35:00,77.4,53.8,28.55,SSW,202,6.0,8.1,44,0.00,,,0.00,VWS V14.01,2013-07-19 10:35:00,
2013-07-19 05:40:00,77.5,53.9,28.55,SW,225,5.8,10.5,44,0.00,,,0.00,VWS V14.01,2013-07-19 10:40:00,
2013-07-19 05:45:00,77.5,53.3,28.55,WSW,248,7.6,9.8,43,0.00,,,0.00,VWS V14.01,2013-07-19 10:45:00,
2013-07-19 05:50:00,77.7,53.5,28.55,SW,225,5.6,11.0,43,0.00,,,0.00,VWS V14.01,2013-07-19 10:50:00,
2013-07-19 05:55:00,78.1,53.8,28.55,WSW,248,10.1,12.1,43,0.00,,,0.00,VWS V14.01,2013-07-19 10:55:00,
2013-07-19 06:00:00,78.3,53.3,28.55,WSW,248,9.2,12.5,42,0.00,,,0.00,VWS V14.01,2013-07-19 11:00:00,
2013-07-19 06:05:00,78.3,53.3,28.55,SW,225,10.1,11.0,42,0.00,,,0.00,VWS V14.01,2013-07-19 11:05:00,
2013-07-19 06:10:00,78.4,53.5,28.55,WSW,248,4.5,10.1,42,0.00,,,0.00,VWS V14.01,2013-07-19 11:10:00,
2013-07-19 06:15:00,78.4,53.5,28.55,West,270,6.0,11.0,42,0.00,,,0.00,VWS V14.01,2013-07-19 11:15:00,
2013-07-19 06:20:00,78.3,53.3,28.55,WSW,248,5.8,10.7,42,0.00,,,0.00,VWS V14.01,2013-07-19 11:20:00,
2013-07-19 06:25:00,78.3,53.3,28.55,WSW,248,6.3,13.2,42,0.00,,,0.00,VWS V14.01,2013-07-19 11:25:00,
2013-07-19 06:30:00,77.9,53.6,28.58,WSW,248,6.0,8.7,43,0.00,,,0.00,VWS V14.01,2013-07-19 11:30:00,
2013-07-19 06:35:00,77.7,53.5,28.58,WSW,248,6.0,9.0,43,0.00,,,0.00,VWS V14.01,2013-07-19 11:35:00,
2013-07-19 06:40:00,77.9,53.6,28.58,WSW,248,8.7,11.0,43,0.00,,,0.00,VWS V14.01,2013-07-19 11:40:00,
2013-07-19 06:45:00,78.1,54.4,28.58,WSW,248,8.7,12.8,44,0.00,,,0.00,VWS V14.01,2013-07-19 11:45:00,
2013-07-19 06:50:00,77.9,54.9,28.58,West,270,4.9,10.3,45,0.00,,,0.00,VWS V14.01,2013-07-19 11:50:00,
2013-07-19 06:55:00,77.5,55.2,28.58,WSW,248,5.4,8.7,46,0.00,,,0.00,VWS V14.01,2013-07-19 11:55:00,
2013-07-19 07:00:00,77.5,55.7,28.58,SW,225,4.5,8.1,47,0.00,,,0.00,VWS V14.01,2013-07-19 12:00:00,
2013-07-19 07:05:00,77.4,55.6,28.58,SSW,202,2.9,8.7,47,0.00,,,0.00,VWS V14.01,2013-07-19 12:05:00,
2013-07-19 07:10:00,77.9,55.5,28.58,WSW,248,7.6,8.5,46,0.00,,,0.00,VWS V14.01,2013-07-19 12:10:00,
2013-07-19 07:15:00,79.0,55.8,28.58,WSW,248,6.5,14.5,45,0.00,,,0.00,VWS V14.01,2013-07-19 12:15:00,
2013-07-19 07:20:00,79.2,55.4,28.58,WSW,248,7.4,8.7,44,0.00,,,0.00,VWS V14.01,2013-07-19 12:20:00,
2013-07-19 07:25:00,80.2,55.7,28.58,West,270,8.7,11.0,43,0.00,,,0.00,VWS V14.01,2013-07-19 12:25:00,
2013-07-19 07:30:00,81.1,55.9,28.58,West,270,3.4,8.7,42,0.00,,,0.00,VWS V14.01,2013-07-19 12:30:00,
2013-07-19 07:35:00,82.4,55.7,28.58,West,270,6.0,8.5,40,0.00,,,0.00,VWS V14.01,2013-07-19 12:35:00,
2013-07-19 07:40:00,82.6,55.8,28.58,WSW,248,6.3,7.2,40,0.00,,,0.00,VWS V14.01,2013-07-19 12:40:00,
2013-07-19 07:45:00,82.2,55.5,28.58,WSW,248,8.1,10.7,40,0.00,,,0.00,VWS V14.01,2013-07-19 12:45:00,
2013-07-19 07:50:00,81.9,55.2,28.58,WSW,248,5.4,9.8,40,0.00,,,0.00,VWS V14.01,2013-07-19 12:50:00,
2013-07-19 07:55:00,81.5,55.5,28.58,WSW,248,7.6,7.8,41,0.00,,,0.00,VWS V14.01,2013-07-19 12:55:00,
2013-07-19 08:00:00,80.6,54.8,28.58,West,270,8.1,10.5,41,0.00,,,0.00,VWS V14.01,2013-07-19 13:00:00,
2013-07-19 08:05:00,81.0,55.7,28.58,WNW,292,6.0,8.5,42,0.00,,,0.00,VWS V14.01,2013-07-19 13:05:00,
2013-07-19 08:10:00,80.8,55.6,28.58,WNW,292,4.7,7.4,42,0.00,,,0.00,VWS V14.01,2013-07-19 13:10:00,
2013-07-19 08:15:00,80.2,55.7,28.58,WNW,292,4.3,7.8,43,0.00,,,0.00,VWS V14.01,2013-07-19 13:15:00,
2013-07-19 08:20:00,79.9,55.4,28.58,West,270,4.9,7.8,43,0.00,,,0.00,VWS V14.01,2013-07-19 13:20:00,
2013-07-19 08:25:00,79.9,56.0,28.58,West,270,7.8,7.8,44,0.00,,,0.00,VWS V14.01,2013-07-19 13:25:00,
2013-07-19 08:30:00,80.1,55.6,28.58,West,270,6.3,9.8,43,0.00,,,0.00,VWS V14.01,2013-07-19 13:30:00,
2013-07-19 08:35:00,80.2,56.4,28.58,West,270,5.6,8.5,44,0.00,,,0.00,VWS V14.01,2013-07-19 13:35:00,
2013-07-19 08:40:00,80.6,56.1,28.58,WNW,292,5.6,10.1,43,0.00,,,0.00,VWS V14.01,2013-07-19 13:40:00,
2013-07-19 08:45:00,81.3,56.7,28.58,WSW,248,10.7,10.7,43,0.00,,,0.00,VWS V14.01,2013-07-19 13:45:00,
2013-07-19 08:50:00,81.0,55.1,28.58,WSW,248,10.1,10.7,41,0.00,,,0.00,VWS V14.01,2013-07-19 13:50:00,
2013-07-19 08:55:00,80.6,55.4,28.58,West,270,5.6,10.1,42,0.00,,,0.00,VWS V14.01,2013-07-19 13:55:00,
2013-07-19 09:00:00,80.2,55.1,28.61,WSW,248,8.7,8.7,42,0.00,,,0.00,VWS V14.01,2013-07-19 14:00:00,
2013-07-19 09:05:00,80.2,55.1,28.61,WSW,248,7.6,8.7,42,0.00,,,0.00,VWS V14.01,2013-07-19 14:05:00,
2013-07-19 09:10:00,80.2,55.1,28.61,West,270,6.0,8.1,42,0.00,,,0.00,VWS V14.01,2013-07-19 14:10:00,
2013-07-19 09:15:00,80.6,56.1,28.61,West,270,5.4,7.8,43,0.00,,,0.00,VWS V14.01,2013-07-19 14:15:00,
2013-07-19 09:20:00,81.3,56.7,28.61,WNW,292,6.3,8.5,43,0.00,,,0.00,VWS V14.01,2013-07-19 14:20:00,
2013-07-19 09:25:00,81.7,57.0,28.61,WNW,292,5.8,7.6,43,0.00,,,0.00,VWS V14.01,2013-07-19 14:25:00,
2013-07-19 09:30:00,82.2,56.9,28.61,WSW,248,4.0,6.7,42,0.00,,,0.00,VWS V14.01,2013-07-19 14:30:00,
2013-07-19 09:35:00,84.9,58.6,28.61,WNW,292,4.0,7.6,41,0.00,,,0.00,VWS V14.01,2013-07-19 14:35:00,
2013-07-19 09:40:00,87.6,59.6,28.61,WSW,248,7.6,8.1,39,0.00,,,0.00,VWS V14.01,2013-07-19 14:40:00,
2013-07-19 09:45:00,87.3,57.1,28.61,West,270,7.2,8.7,36,0.00,,,0.00,VWS V14.01,2013-07-19 14:45:00,
2013-07-19 09:50:00,86.4,57.0,28.61,WNW,292,4.0,8.1,37,0.00,,,0.00,VWS V14.01,2013-07-19 14:50:00,
2013-07-19 09:55:00,87.1,57.7,28.61,WNW,292,6.3,8.7,37,0.00,,,0.00,VWS V14.01,2013-07-19 14:55:00,
2013-07-19 10:00:00,87.3,57.8,28.61,WSW,248,6.0,8.5,37,0.00,,,0.00,VWS V14.01,2013-07-19 15:00:00,
2013-07-19 10:05:00,87.1,56.1,28.61,West,270,8.1,8.5,35,0.00,,,0.00,VWS V14.01,2013-07-19 15:05:00,
2013-07-19 10:10:00,86.5,56.4,28.61,WSW,248,5.6,8.1,36,0.00,,,0.00,VWS V14.01,2013-07-19 15:10:00,
2013-07-19 10:15:00,87.8,56.0,28.61,WNW,292,7.6,8.5,34,0.00,,,0.00,VWS V14.01,2013-07-19 15:15:00,
2013-07-19 10:20:00,90.1,57.2,28.61,West,270,9.0,9.2,33,0.00,,,0.00,VWS V14.01,2013-07-19 15:20:00,
2013-07-19 10:25:00,90.3,56.5,28.61,WSW,248,8.7,9.0,32,0.00,,,0.00,VWS V14.01,2013-07-19 15:25:00,
2013-07-19 10:30:00,91.0,57.1,28.61,WNW,292,5.4,8.7,32,0.00,,,0.00,VWS V14.01,2013-07-19 15:30:00,
2013-07-19 10:35:00,91.6,56.7,28.61,WNW,292,5.6,8.1,31,0.00,,,0.00,VWS V14.01,2013-07-19 15:35:00,
2013-07-19 10:40:00,91.2,56.4,28.61,West,270,5.4,8.5,31,0.00,,,0.00,VWS V14.01,2013-07-19 15:40:00,
2013-07-19 10:45:00,91.0,56.2,28.61,WNW,292,6.0,7.8,31,0.00,,,0.00,VWS V14.01,2013-07-19 15:45:00,
2013-07-19 10:50:00,92.3,56.4,28.61,WSW,248,5.8,8.1,30,0.00,,,0.00,VWS V14.01,2013-07-19 15:50:00,
2013-07-19 10:55:00,92.7,55.8,28.61,NNW,338,2.2,7.6,29,0.00,,,0.00,VWS V14.01,2013-07-19 15:55:00,
2013-07-19 11:00:00,93.2,55.3,28.61,WNW,292,6.3,8.5,28,0.00,,,0.00,VWS V14.01,2013-07-19 16:00:00,
2013-07-19 11:05:00,93.4,56.4,28.61,West,270,4.3,7.8,29,0.00,,,0.00,VWS V14.01,2013-07-19 16:05:00,
2013-07-19 11:10:00,93.7,55.7,28.61,WNW,292,6.3,9.2,28,0.00,,,0.00,VWS V14.01,2013-07-19 16:10:00,
2013-07-19 11:15:00,93.4,55.4,28.58,WNW,292,6.0,8.7,28,0.00,,,0.00,VWS V14.01,2013-07-19 16:15:00,
2013-07-19 11:20:00,93.4,55.4,28.58,West,270,8.5,8.5,28,0.00,,,0.00,VWS V14.01,2013-07-19 16:20:00,
2013-07-19 11:25:00,93.4,55.4,28.58,NW,315,6.3,8.5,28,0.00,,,0.00,VWS V14.01,2013-07-19 16:25:00,
2013-07-19 11:30:00,94.3,55.2,28.58,WSW,248,3.6,6.3,27,0.00,,,0.00,VWS V14.01,2013-07-19 16:30:00,
2013-07-19 11:35:00,94.8,55.7,28.58,WNW,292,5.6,6.5,27,0.00,,,0.00,VWS V14.01,2013-07-19 16:35:00,
2013-07-19 11:40:00,95.2,54.9,28.58,NNW,338,3.6,6.0,26,0.00,,,0.00,VWS V14.01,2013-07-19 16:40:00,
2013-07-19 11:45:00,96.1,56.7,28.58,NW,315,3.1,4.7,27,0.00,,,0.00,VWS V14.01,2013-07-19 16:45:00,
2013-07-19 11:50:00,96.4,56.0,28.58,WNW,292,2.9,6.0,26,0.00,,,0.00,VWS V14.01,2013-07-19 16:50:00,
2013-07-19 11:55:00,95.2,54.9,28.58,WNW,292,3.6,6.3,26,0.00,,,0.00,VWS V14.01,2013-07-19 16:55:00,
2013-07-19 12:00:00,96.3,55.8,28.61,WSW,248,2.7,6.9,26,0.00,,,0.00,VWS V14.01,2013-07-19 17:00:00,
2013-07-19 12:05:00,96.1,52.3,28.61,WNW,292,3.1,7.8,23,0.00,,,0.00,VWS V14.01,2013-07-19 17:05:00,
2013-07-19 12:10:00,96.4,53.8,28.61,WNW,292,3.6,6.3,24,0.00,,,0.00,VWS V14.01,2013-07-19 17:10:00,
2013-07-19 12:15:00,96.3,54.8,28.58,WNW,292,2.7,5.8,25,0.00,,,0.00,VWS V14.01,2013-07-19 17:15:00,
2013-07-19 12:20:00,95.7,54.3,28.58,NNW,338,2.5,7.4,25,0.00,,,0.00,VWS V14.01,2013-07-19 17:20:00,
2013-07-19 12:25:00,95.9,53.3,28.58,WNW,292,7.6,10.5,24,0.00,,,0.00,VWS V14.01,2013-07-19 17:25:00,
2013-07-19 12:30:00,95.9,52.2,28.61,NW,315,7.8,10.5,23,0.00,,,0.00,VWS V14.01,2013-07-19 17:30:00,
2013-07-19 12:35:00,95.4,51.7,28.61,West,270,8.7,10.3,23,0.00,,,0.00,VWS V14.01,2013-07-19 17:35:00,
2013-07-19 12:40:00,95.7,55.4,28.61,WNW,292,7.6,11.0,26,0.00,,,0.00,VWS V14.01,2013-07-19 17:40:00,
2013-07-19 12:45:00,95.7,55.4,28.58,WNW,292,4.9,7.8,26,0.00,,,0.00,VWS V14.01,2013-07-19 17:45:00,
2013-07-19 12:50:00,94.8,54.6,28.58,WNW,292,7.6,14.8,26,0.00,,,0.00,VWS V14.01,2013-07-19 17:50:00,
2013-07-19 12:55:00,95.2,54.9,28.58,NW,315,4.3,8.1,26,0.00,,,0.00,VWS V14.01,2013-07-19 17:55:00,
2013-07-19 13:00:00,95.4,55.1,28.58,West,270,8.7,9.6,26,0.00,,,0.00,VWS V14.01,2013-07-19 18:00:00,
2013-07-19 13:05:00,95.2,53.8,28.58,NW,315,7.8,9.6,25,0.00,,,0.00,VWS V14.01,2013-07-19 18:05:00,
2013-07-19 13:10:00,95.5,51.9,28.58,WNW,292,10.7,10.7,23,0.00,,,0.00,VWS V14.01,2013-07-19 18:10:00,
2013-07-19 13:15:00,94.6,48.7,28.58,NW,315,10.3,14.1,21,0.00,,,0.00,VWS V14.01,2013-07-19 18:15:00,
2013-07-19 13:20:00,94.6,52.3,28.58,West,270,5.4,15.7,24,0.00,,,0.00,VWS V14.01,2013-07-19 18:20:00,
2013-07-19 13:25:00,95.5,53.0,28.58,WNW,292,7.8,10.1,24,0.00,,,0.00,VWS V14.01,2013-07-19 18:25:00,
2013-07-19 13:30:00,95.2,50.4,28.58,WNW,292,7.6,10.3,22,0.00,,,0.00,VWS V14.01,2013-07-19 18:30:00,
2013-07-19 13:35:00,95.0,50.2,28.58,WNW,292,7.2,10.1,22,0.00,,,0.00,VWS V14.01,2013-07-19 18:35:00,
2013-07-19 13:40:00,95.2,51.6,28.58,NNW,338,5.8,15.2,23,0.00,,,0.00,VWS V14.01,2013-07-19 18:40:00,
2013-07-19 13:45:00,95.2,47.8,28.61,West,270,13.0,13.0,20,0.00,,,0.00,VWS V14.01,2013-07-19 18:45:00,
2013-07-19 13:50:00,95.2,49.1,28.61,NNW,338,7.6,13.0,21,0.00,,,0.00,VWS V14.01,2013-07-19 18:50:00,
2013-07-19 13:55:00,95.5,49.4,28.61,WNW,292,7.8,8.5,21,0.00,,,0.00,VWS V14.01,2013-07-19 18:55:00,
2013-07-19 14:00:00,95.0,47.7,28.58,WNW,292,10.1,11.2,20,0.00,,,0.00,VWS V14.01,2013-07-19 19:00:00,
2013-07-19 14:05:00,94.8,48.8,28.58,West,270,6.0,13.4,21,0.00,,,0.00,VWS V14.01,2013-07-19 19:05:00,
2013-07-19 14:10:00,95.4,50.5,28.58,WNW,292,2.7,10.7,22,0.00,,,0.00,VWS V14.01,2013-07-19 19:10:00,
2013-07-19 14:15:00,95.4,48.0,28.58,WNW,292,6.0,12.1,20,0.00,,,0.00,VWS V14.01,2013-07-19 19:15:00,
2013-07-19 14:20:00,95.5,49.4,28.58,NW,315,6.7,12.3,21,0.00,,,0.00,VWS V14.01,2013-07-19 19:20:00,
2013-07-19 14:25:00,95.5,48.1,28.58,NW,315,4.0,13.2,20,0.00,,,0.00,VWS V14.01,2013-07-19 19:25:00,
2013-07-19 14:30:00,95.2,47.8,28.61,NNW,338,10.1,10.1,20,0.00,,,0.00,VWS V14.01,2013-07-19 19:30:00,
2013-07-19 14:35:00,95.7,48.3,28.61,North,0,2.5,10.1,20,0.00,,,0.00,VWS V14.01,2013-07-19 19:35:00,
2013-07-19 14:40:00,96.1,48.6,28.61,WNW,292,5.4,5.8,20,0.00,,,0.00,VWS V14.01,2013-07-19 19:40:00,
2013-07-19 14:45:00,94.6,48.7,28.61,WNW,292,12.5,13.4,21,0.00,,,0.00,VWS V14.01,2013-07-19 19:45:00,
2013-07-19 14:50:00,94.8,51.3,28.61,WNW,292,12.5,13.0,23,0.00,,,0.00,VWS V14.01,2013-07-19 19:50:00,
2013-07-19 14:55:00,94.5,48.5,28.61,WNW,292,7.8,12.5,21,0.00,,,0.00,VWS V14.01,2013-07-19 19:55:00,
2013-07-19 15:00:00,95.2,47.8,28.61,NNW,338,4.3,10.1,20,0.00,,,0.00,VWS V14.01,2013-07-19 20:00:00,
2013-07-19 15:05:00,94.6,48.7,28.61,NW,315,9.8,10.5,21,0.00,,,0.00,VWS V14.01,2013-07-19 20:05:00,
2013-07-19 15:10:00,94.5,48.5,28.61,WNW,292,4.0,13.0,21,0.00,,,0.00,VWS V14.01,2013-07-19 20:10:00,
2013-07-19 15:15:00,94.5,47.2,28.61,WNW,292,4.3,11.2,20,0.00,,,0.00,VWS V14.01,2013-07-19 20:15:00,
2013-07-19 15:20:00,95.4,49.3,28.61,WNW,292,6.5,10.1,21,0.00,,,0.00,VWS V14.01,2013-07-19 20:20:00,
2013-07-19 15:25:00,94.6,47.4,28.61,NW,315,7.6,11.2,20,0.00,,,0.00,VWS V14.01,2013-07-19 20:25:00,
2013-07-19 15:30:00,94.5,47.2,28.61,WNW,292,8.5,8.7,20,0.00,,,0.00,VWS V14.01,2013-07-19 20:30:00,
2013-07-19 15:35:00,94.5,47.2,28.61,WNW,292,8.5,12.8,20,0.00,,,0.00,VWS V14.01,2013-07-19 20:35:00,
2013-07-19 15:40:00,94.8,48.8,28.61,WNW,292,3.6,8.5,21,0.00,,,0.00,VWS V14.01,2013-07-19 20:40:00,
2013-07-19 15:45:00,95.0,47.7,28.61,NNW,338,3.6,7.6,20,0.00,,,0.00,VWS V14.01,2013-07-19 20:45:00,
2013-07-19 15:50:00,95.4,48.0,28.61,West,270,5.4,6.5,20,0.00,,,0.00,VWS V14.01,2013-07-19 20:50:00,
2013-07-19 15:55:00,94.5,48.5,28.61,NW,315,5.4,7.4,21,0.00,,,0.00,VWS V14.01,2013-07-19 20:55:00,
2013-07-19 16:00:00,94.8,50.1,28.61,NNW,338,4.9,6.7,22,0.00,,,0.00,VWS V14.01,2013-07-19 21:00:00,
2013-07-19 16:05:00,93.9,49.3,28.61,NW,315,4.3,13.0,22,0.00,,,0.00,VWS V14.01,2013-07-19 21:05:00,
2013-07-19 16:10:00,94.1,48.2,28.61,WNW,292,2.9,8.5,21,0.00,,,0.00,VWS V14.01,2013-07-19 21:10:00,
2013-07-19 16:15:00,93.7,48.0,28.61,NNW,338,6.3,6.3,21,0.00,,,0.00,VWS V14.01,2013-07-19 21:15:00,
2013-07-19 16:20:00,94.1,48.2,28.61,NW,315,2.9,10.3,21,0.00,,,0.00,VWS V14.01,2013-07-19 21:20:00,
2013-07-19 16:25:00,93.2,47.5,28.61,NW,315,4.0,9.6,21,0.00,,,0.00,VWS V14.01,2013-07-19 21:25:00,
2013-07-19 16:30:00,92.8,47.2,28.58,WNW,292,3.4,8.7,21,0.00,,,0.00,VWS V14.01,2013-07-19 21:30:00,
2013-07-19 16:35:00,92.8,47.2,28.58,ESE,112,2.2,8.5,21,0.00,,,0.00,VWS V14.01,2013-07-19 21:35:00,
2013-07-19 16:40:00,93.4,47.7,28.58,NNW,338,3.8,7.6,21,0.00,,,0.00,VWS V14.01,2013-07-19 21:40:00,
2013-07-19 16:45:00,92.7,48.3,28.61,NNW,338,5.4,8.7,22,0.00,,,0.00,VWS V14.01,2013-07-19 21:45:00,
2013-07-19 16:50:00,91.9,46.5,28.61,WNW,292,5.6,10.3,21,0.00,,,0.00,VWS V14.01,2013-07-19 21:50:00,
2013-07-19 16:55:00,91.8,47.5,28.61,NW,315,5.6,8.1,22,0.00,,,0.00,VWS V14.01,2013-07-19 21:55:00,
2013-07-19 17:00:00,92.1,47.8,28.61,WNW,292,3.4,6.0,22,0.00,,,0.00,VWS V14.01,2013-07-19 22:00:00,
2013-07-19 17:05:00,91.6,46.2,28.61,WNW,292,3.1,7.6,21,0.00,,,0.00,VWS V14.01,2013-07-19 22:05:00,
2013-07-19 17:10:00,91.4,46.0,28.61,WNW,292,5.6,7.6,21,0.00,,,0.00,VWS V14.01,2013-07-19 22:10:00,
2013-07-19 17:15:00,91.4,46.0,28.61,West,270,3.6,7.6,21,0.00,,,0.00,VWS V14.01,2013-07-19 22:15:00,
2013-07-19 17:20:00,91.6,47.4,28.61,NNE,22,2.9,7.4,22,0.00,,,0.00,VWS V14.01,2013-07-19 22:20:00,
2013-07-19 17:25:00,90.9,46.8,28.61,WNW,292,4.9,8.5,22,0.00,,,0.00,VWS V14.01,2013-07-19 22:25:00,
2013-07-19 17:30:00,90.7,46.7,28.58,NW,315,7.2,7.2,22,0.00,,,0.00,VWS V14.01,2013-07-19 22:30:00,
2013-07-19 17:35:00,91.0,48.1,28.58,NNW,338,4.3,7.2,23,0.00,,,0.00,VWS V14.01,2013-07-19 22:35:00,
2013-07-19 17:40:00,90.7,46.7,28.58,NNW,338,4.9,7.6,22,0.00,,,0.00,VWS V14.01,2013-07-19 22:40:00,
2013-07-19 17:45:00,90.9,48.0,28.58,NNW,338,3.4,6.5,23,0.00,,,0.00,VWS V14.01,2013-07-19 22:45:00,
2013-07-19 17:50:00,90.3,46.3,28.58,WNW,292,6.0,7.8,22,0.00,,,0.00,VWS V14.01,2013-07-19 22:50:00,
2013-07-19 17:55:00,90.3,47.5,28.58,NW,315,3.8,6.0,23,0.00,,,0.00,VWS V14.01,2013-07-19 22:55:00,
2013-07-19 18:00:00,89.6,46.9,28.58,NNW,338,2.5,7.6,23,0.00,,,0.00,VWS V14.01,2013-07-19 23:00:00,
2013-07-19 18:05:00,89.6,46.9,28.58,NW,315,5.6,5.8,23,0.00,,,0.00,VWS V14.01,2013-07-19 23:05:00,
2013-07-19 18:10:00,88.9,46.3,28.58,NNW,338,4.3,8.7,23,0.00,,,0.00,VWS V14.01,2013-07-19 23:10:00,
2013-07-19 18:15:00,89.2,46.6,28.58,NNE,22,4.0,6.3,23,0.00,,,0.00,VWS V14.01,2013-07-19 23:15:00,
2013-07-19 18:20:00,89.2,46.6,28.58,WNW,292,5.4,5.4,23,0.00,,,0.00,VWS V14.01,2013-07-19 23:20:00,
2013-07-19 18:25:00,88.7,46.2,28.58,ENE,68,6.9,6.9,23,0.00,,,0.00,VWS V14.01,2013-07-19 23:25:00,
2013-07-19 18:30:00,88.7,46.2,28.58,NW,315,4.0,6.9,23,0.00,,,0.00,VWS V14.01,2013-07-19 23:30:00,
2013-07-19 18:35:00,88.7,48.4,28.58,NW,315,4.0,4.0,25,0.00,,,0.00,VWS V14.01,2013-07-19 23:35:00,
2013-07-19 18:40:00,88.7,48.4,28.58,WNW,292,2.5,4.3,25,0.00,,,0.00,VWS V14.01,2013-07-19 23:40:00,
2013-07-19 18:45:00,88.0,47.8,28.58,WNW,292,2.5,5.6,25,0.00,,,0.00,VWS V14.01,2013-07-19 23:45:00,
2013-07-19 18:50:00,87.8,46.5,28.58,NNW,338,2.7,6.5,24,0.00,,,0.00,VWS V14.01,2013-07-19 23:50:00,
2013-07-19 18:55:00,88.2,47.9,28.58,NNW,338,1.3,6.0,25,0.00,,,0.00,VWS V14.01,2013-07-19 23:55:00,
2013-07-19 19:00:00,88.0,46.7,28.61,NW,315,2.7,4.0,24,0.00,,,0.00,VWS V14.01,2013-07-20 00:00:00,
2013-07-19 19:05:00,88.0,47.8,28.61,SW,225,0.9,4.0,25,0.00,,,0.00,VWS V14.01,2013-07-20 00:05:00,
2013-07-19 19:10:00,87.4,47.3,28.61,NNE,22,2.5,5.4,25,0.00,,,0.00,VWS V14.01,2013-07-20 00:10:00,
2013-07-19 19:15:00,87.4,48.4,28.58,NNW,338,0.0,4.0,26,0.00,,,0.00,VWS V14.01,2013-07-20 00:15:00,
2013-07-19 19:20:00,86.2,46.3,28.58,WNW,292,3.6,4.3,25,0.00,,,0.00,VWS V14.01,2013-07-20 00:20:00,
2013-07-19 19:25:00,85.3,46.5,28.58,WNW,292,0.0,3.8,26,0.00,,,0.00,VWS V14.01,2013-07-20 00:25:00,
2013-07-19 19:30:00,84.4,44.8,28.58,WNW,292,1.1,4.0,25,0.00,,,0.00,VWS V14.01,2013-07-20 00:30:00,
2013-07-19 19:35:00,84.7,46.1,28.58,ESE,112,0.0,2.9,26,0.00,,,0.00,VWS V14.01,2013-07-20 00:35:00,
2013-07-19 19:40:00,85.1,47.4,28.58,NW,315,0.0,2.5,27,0.00,,,0.00,VWS V14.01,2013-07-20 00:40:00,
2013-07-19 19:45:00,84.9,47.2,28.61,NE,45,0.0,0.0,27,0.00,,,0.00,VWS V14.01,2013-07-20 00:45:00,
2013-07-19 19:50:00,84.4,46.8,28.61,NW,315,0.0,0.0,27,0.00,,,0.00,VWS V14.01,2013-07-20 00:50:00,
2013-07-19 19:55:00,84.0,46.5,28.61,NNW,338,0.0,0.0,27,0.00,,,0.00,VWS V14.01,2013-07-20 00:55:00,
2013-07-19 20:00:00,83.7,46.2,28.58,WNW,292,0.0,2.9,27,0.00,,,0.00,VWS V14.01,2013-07-20 01:00:00,
2013-07-19 20:05:00,82.2,45.9,28.58,WNW,292,0.0,0.0,28,0.00,,,0.00,VWS V14.01,2013-07-20 01:05:00,
2013-07-19 20:10:00,79.7,45.6,28.58,WSW,248,0.0,0.0,30,0.00,,,0.00,VWS V14.01,2013-07-20 01:10:00,
2013-07-19 20:15:00,80.1,45.9,28.58,WSW,248,0.0,0.0,30,0.00,,,0.00,VWS V14.01,2013-07-20 01:15:00,
2013-07-19 20:20:00,79.5,45.4,28.58,WSW,248,0.0,0.0,30,0.00,,,0.00,VWS V14.01,2013-07-20 01:20:00,
2013-07-19 20:25:00,78.1,45.0,28.58,SSW,202,0.0,0.0,31,0.00,,,0.00,VWS V14.01,2013-07-20 01:25:00,
2013-07-19 20:30:00,76.6,44.6,28.61,SSW,202,0.0,0.0,32,0.00,,,0.00,VWS V14.01,2013-07-20 01:30:00,
2013-07-19 20:35:00,75.6,43.7,28.61,SW,225,0.0,0.0,32,0.00,,,0.00,VWS V14.01,2013-07-20 01:35:00,
2013-07-19 20:40:00,74.3,43.4,28.61,NW,315,0.0,0.0,33,0.00,,,0.00,VWS V14.01,2013-07-20 01:40:00,
2013-07-19 20:45:00,73.0,43.8,28.61,NW,315,0.0,0.0,35,0.00,,,0.00,VWS V14.01,2013-07-20 01:45:00,
2013-07-19 20:50:00,72.0,44.3,28.61,NNW,338,0.0,0.0,37,0.00,,,0.00,VWS V14.01,2013-07-20 01:50:00,
2013-07-19 20:55:00,71.2,44.4,28.61,NW,315,0.0,0.0,38,0.00,,,0.00,VWS V14.01,2013-07-20 01:55:00,
2013-07-19 21:00:00,70.5,45.1,28.61,NNW,338,0.0,0.0,40,0.00,,,0.00,VWS V14.01,2013-07-20 02:00:00,
2013-07-19 21:05:00,69.8,45.7,28.61,WNW,292,0.0,1.3,42,0.00,,,0.00,VWS V14.01,2013-07-20 02:05:00,
2013-07-19 21:10:00,69.4,46.0,28.61,NNW,338,0.0,0.0,43,0.00,,,0.00,VWS V14.01,2013-07-20 02:10:00,
2013-07-19 21:15:00,69.1,46.3,28.61,NNW,338,0.0,0.0,44,0.00,,,0.00,VWS V14.01,2013-07-20 02:15:00,
2013-07-19 21:20:00,68.7,46.0,28.61,NNW,338,0.0,0.0,44,0.00,,,0.00,VWS V14.01,2013-07-20 02:20:00,
2013-07-19 21:25:00,68.4,46.2,28.61,NW,315,0.0,2.0,45,0.00,,,0.00,VWS V14.01,2013-07-20 02:25:00,
2013-07-19 21:30:00,68.0,47.0,28.61,WNW,292,0.0,0.0,47,0.00,,,0.00,VWS V14.01,2013-07-20 02:30:00,
2013-07-19 21:35:00,67.5,47.7,28.61,NW,315,0.0,2.9,49,0.00,,,0.00,VWS V14.01,2013-07-20 02:35:00,
2013-07-19 21:40:00,66.9,47.2,28.61,NW,315,0.0,0.0,49,0.00,,,0.00,VWS V14.01,2013-07-20 02:40:00,
2013-07-19 21:45:00,66.9,47.2,28.61,NNW,338,0.0,0.0,49,0.00,,,0.00,VWS V14.01,2013-07-20 02:45:00,
2013-07-19 21:50:00,66.4,46.7,28.61,WNW,292,0.0,0.0,49,0.00,,,0.00,VWS V14.01,2013-07-20 02:50:00,
2013-07-19 21:55:00,66.0,46.9,28.61,WNW,292,0.0,0.0,50,0.00,,,0.00,VWS V14.01,2013-07-20 02:55:00,
2013-07-19 22:00:00,65.5,46.9,28.61,SW,225,0.0,0.0,51,0.00,,,0.00,VWS V14.01,2013-07-20 03:00:00,
2013-07-19 22:05:00,65.1,47.6,28.61,WNW,292,0.0,1.3,53,0.00,,,0.00,VWS V14.01,2013-07-20 03:05:00,
2013-07-19 22:10:00,64.8,47.2,28.61,West,270,0.0,0.0,53,0.00,,,0.00,VWS V14.01,2013-07-20 03:10:00,
2013-07-19 22:15:00,64.6,48.1,28.61,NNW,338,0.0,0.0,55,0.00,,,0.00,VWS V14.01,2013-07-20 03:15:00,
2013-07-19 22:20:00,64.2,48.2,28.61,WNW,292,0.0,0.0,56,0.00,,,0.00,VWS V14.01,2013-07-20 03:20:00,
2013-07-19 22:25:00,64.0,48.5,28.61,SW,225,0.0,0.0,57,0.00,,,0.00,VWS V14.01,2013-07-20 03:25:00,
2013-07-19 22:30:00,63.5,48.0,28.61,SSW,202,0.0,0.0,57,0.00,,,0.00,VWS V14.01,2013-07-20 03:30:00,
2013-07-19 22:35:00,63.7,48.2,28.61,WSW,248,0.0,0.0,57,0.00,,,0.00,VWS V14.01,2013-07-20 03:35:00,
2013-07-19 22:40:00,63.5,48.0,28.61,West,270,0.0,0.0,57,0.00,,,0.00,VWS V14.01,2013-07-20 03:40:00,
2013-07-19 22:45:00,63.3,48.3,28.64,SW,225,0.0,0.0,58,0.00,,,0.00,VWS V14.01,2013-07-20 03:45:00,
2013-07-19 22:50:00,63.5,48.5,28.64,West,270,0.0,0.0,58,0.00,,,0.00,VWS V14.01,2013-07-20 03:50:00,
2013-07-19 22:55:00,63.7,49.1,28.64,WNW,292,0.0,0.0,59,0.00,,,0.00,VWS V14.01,2013-07-20 03:55:00,
2013-07-19 23:00:00,64.2,50.1,28.64,WSW,248,0.0,0.0,60,0.00,,,0.00,VWS V14.01,2013-07-20 04:00:00,
2013-07-19 23:05:00,63.9,49.3,28.64,WSW,248,0.0,0.0,59,0.00,,,0.00,VWS V14.01,2013-07-20 04:05:00,
2013-07-19 23:10:00,63.3,49.2,28.64,SW,225,0.0,0.0,60,0.00,,,0.00,VWS V14.01,2013-07-20 04:10:00,
2013-07-19 23:15:00,63.1,48.6,28.64,SW,225,0.0,0.0,59,0.00,,,0.00,VWS V14.01,2013-07-20 04:15:00,
2013-07-19 23:20:00,62.8,48.7,28.64,SW,225,0.0,0.0,60,0.00,,,0.00,VWS V14.01,2013-07-20 04:20:00,
2013-07-19 23:25:00,62.6,48.5,28.64,SW,225,0.0,0.0,60,0.00,,,0.00,VWS V14.01,2013-07-20 04:25:00,
2013-07-19 23:30:00,62.6,48.5,28.64,SW,225,0.0,0.0,60,0.00,,,0.00,VWS V14.01,2013-07-20 04:30:00,
2013-07-19 23:35:00,62.4,48.8,28.64,SW,225,0.0,0.0,61,0.00,,,0.00,VWS V14.01,2013-07-20 04:35:00,
2013-07-19 23:40:00,62.2,48.6,28.64,SW,225,0.0,0.0,61,0.00,,,0.00,VWS V14.01,2013-07-20 04:40:00,
2013-07-19 23:45:00,62.4,49.2,28.64,SW,225,0.0,0.0,62,0.00,,,0.00,VWS V14.01,2013-07-20 04:45:00,
2013-07-19 23:50:00,62.8,50.0,28.64,NW,315,0.0,0.0,63,0.00,,,0.00,VWS V14.01,2013-07-20 04:50:00,
2013-07-19 23:55:00,63.1,50.8,28.64,NW,315,0.0,0.0,64,0.00,,,0.00,VWS V14.01,2013-07-20 04:55:00,